RH
52 50 51 49 47 50 54 50 50 51 43 37 35 36 34 32 32 31 32 36 36 35 35 33 32 31 30 28 28 32 37 38 40 42 40 40 41 39 35 31 29 29 31 26 20 18 19
48 52 55 56 55 52 52 56 58 55 56 47 41 37 36 34 32 32 31 31 36 37 35 36 35 33 30 30 27 28 31 34 38 37 37 37 40 40 40 38 36 34 31 28 31 32 32
50 46 51 54 54 53 52 49 55 57 50 50 46 40 38 37 35 32 32 31 31 36 39 39 36 37 36 34 31 30 29 30 32 33 37 38 37 35 36 36 38 40 39 37 35 32 27
61 56 48 45 57 56 51 48 43 44 42 39 41 39 38 39 39 38 36 34 33 32 33 37 39 38 35 34 37 36 33 32 32 32 32 31 32 35 38 38 37 34 35 35 34 34 34
65 66 62 53 49 57 56 48 47 48 48 44 43 40 41 43 44 43 43 42 41 39 36 33 35 38 40 38 36 37 41 37 35 34 35 38 39 39 37 33 32 34 36 36 33 32 31
69 69 69 66 61 56 56 57 47 53 50 48 48 48 54 52 48 49 49 49 49 47 45 43 35 35 38 42 40 40 35 40 42 39 39 40 40 43 45 43 41 39 36 34 34 34 34
72 76 73 71 67 65 62 61 54 52 55 56 56 52 56 59 56 58 56 54 53 52 49 48 46 41 30 29 39 43 42 33 41 47 46 45 46 47 47 46 45 44 41 39 37 32 30
82 80 77 73 73 68 66 64 62 58 58 58 57 60 59 54 58 58 57 55 53 52 48 48 46 42 42 40 30 36 39 34 33 38 51 53 51 50 50 50 49 46 44 45 40 37 33
85 84 85 80 73 69 68 68 67 65 62 61 61 60 64 64 57 57 58 57 55 49 47 46 44 45 46 45 41 37 38 38 38 39 43 53 58 57 54 54 54 53 51 50 48 45 40
94 91 86 84 82 76 74 73 72 73 71 67 67 65 64 68 69 64 60 56 54 51 47 36 34 37 42 46 48 48 48 50 50 53 58 62 66 68 69 67 66 64 63 61 58 55 50
91 99 90 88 78 88 95 93 88 80 80 79 77 73 68 71 77 66 60 57 55 52 40 38 41 43 42 42 43 44 50 55 56 56 60 71 69 71 72 71 70 70 68 65 63 60 55
86 97 100 98 87 91 94 96 97 96 96 91 86 83 76 75 78 69 63 63 59 47 43 44 45 47 46 43 42 42 43 46 49 52 56 60 66 71 75 80 85 87 89 85 78 78 67
91 90 98 99 96 96 95 93 94 88 90 92 92 86 82 80 76 71 67 63 57 53 48 46 47 48 48 46 46 47 48 47 48 52 60 63 66 67 68 68 69 70 72 74 62 63 60
97 92 94 99 98 99 93 94 95 92 93 97 92 92 85 77 75 75 72 66 58 53 53 51 51 48 46 48 46 43 39 37 35 34 34 36 38 40 45 46 49 51 58 68 56 54 51
97 97 97 96 99 89 92 95 94 93 98 99 93 86 89 86 78 75 76 67 62 58 53 52 47 37 33 32 31 32 34 35 38 46 52 49 34 28 25 28 36 50 54 74 79 68 59
95 96 96 96 96 93 95 100 100 94 95 96 93 94 100 99 88 80 74 69 63 57 51 39 30 28 27 26 29 37 47 53 54 48 34 20 19 13 11 12 18 25 42 77 99 87 68
98 97 96 97 97 100 98 98 100 100 98 96 99 96 98 98 87 81 76 69 59 43 30 25 31 35 36 36 38 41 40 33 22 14 10 9 10 11 11 10 9 10 12 24 35 48 55
98 97 96 97 98 100 98 98 99 100 100 96 100 94 100 99 93 84 71 59 50 45 36 34 40 40 35 25 17 10 8 9 10 10 10 9 10 10 9 7 6 6 8 10 13 16 13
97 97 96 96 98 100 97 96 98 97 99 97 100 100 100 98 93 64 59 56 51 49 41 38 34 29 21 14 15 14 13 11 8 8 8 8 8 7 5 5 5 5 6 6 12 12 11
98 97 99 98 98 100 100 98 98 99 99 99 99 97 100 93 68 68 76 67 49 42 26 18 14 16 19 21 19 14 9 8 8 7 6 4 4 5 4 4 4 4 4 6 11 11 59
99 98 99 98 99 99 99 99 95 100 98 97 98 100 98 96 97 83 65 51 29 27 27 21 22 19 13 9 9 8 8 7 6 5 5 5 4 5 5 5 5 5 6 8 12 20 43
98 96 98 97 98 98 100 100 98 98 97 98 98 97 96 97 67 32 22 21 13 9 9 9 9 8 8 8 8 7 7 6 5 5 5 6 6 6 4 6 5 3 5 24 37 46 57
97 98 99 99 98 98 99 98 97 98 96 97 99 78 77 49 51 31 14 10 8 9 10 8 8 8 8 8 7 6 6 5 5 5 6 6 8 7 5 5 4 4 7 12 23 48 70
99 100 95 98 100 99 99 96 73 72 48 43 66 58 55 46 24 19 17 10 10 10 9 9 8 8 8 7 7 5 6 6 6 6 6 7 9 8 6 6 6 6 6 15 24 31 48
96 98 97 97 98 91 95 98 97 84 60 48 41 27 14 9 10 11 11 11 10 10 9 8 8 8 8 8 6 6 6 6 7 7 8 9 10 13 11 10 7 7 11 20 20 14 33
98 99 94 98 94 97 95 77 41 45 38 25 8 8 11 14 13 11 10 10 10 9 9 9 9 8 8 8 8 7 7 7 7 8 8 10 12 12 14 19 13 10 16 20 15 13 21
97 99 93 73 81 81 67 74 33 19 15 9 10 13 14 12 12 13 12 10 10 9 9 9 9 8 8 8 8 8 9 9 9 9 10 11 12 13 18 18 12 16 17 17 19 24 16
88 100 78 97 83 42 26 22 18 12 12 13 14 14 13 12 12 12 11 10 10 10 10 10 10 10 9 9 9 10 9 9 9 10 10 11 13 13 16 16 14 18 19 22 22 17 20
83 90 90 95 70 31 24 22 16 15 15 16 16 16 16 16 17 14 12 10 10 10 10 11 11 10 10 10 10 10 10 11 12 11 12 13 14 17 16 21 36 36 28 19 21 22 28
Wind_Speed
19 18 17 16 16 16 15 16 14 13 12 9 13 13 14 15 16 16 15 14 14 12 10 10 8 7 8 7 8 8 8 8 8 9 10 11 12 12 13 13 15 17 20 21 21 22 22
22 21 20 19 18 18 17 17 18 18 15 13 12 14 15 16 17 17 17 17 15 13 13 12 11 10 9 10 9 10 10 11 10 11 11 12 13 14 15 15 16 17 18 19 22 24 25
23 22 22 22 21 20 20 19 20 18 19 17 14 13 15 16 17 17 18 18 17 16 16 15 15 13 13 13 13 12 12 12 12 13 13 14 14 16 16 17 17 19 21 21 22 23 24
26 25 24 24 23 22 21 19 19 18 18 18 17 15 16 16 16 17 17 17 18 18 17 18 18 18 16 15 16 16 15 16 16 15 15 16 17 18 19 21 21 21 22 23 24 26 27
30 28 27 26 25 24 23 23 21 21 20 19 19 18 16 17 17 18 18 18 19 19 20 19 20 21 21 19 18 18 19 19 19 19 20 20 20 20 22 23 24 25 26 27 28 29 30
34 32 30 28 27 26 26 25 25 24 22 21 21 20 20 20 21 21 20 20 20 22 22 23 23 23 23 23 22 22 21 22 23 22 23 24 25 25 26 26 26 26 27 29 31 32 34
37 35 34 32 30 29 28 26 26 25 25 24 24 26 26 25 24 24 24 22 21 22 26 26 26 26 25 25 26 26 25 23 24 25 26 26 27 29 29 30 30 30 31 32 34 36 37
40 38 36 35 33 32 31 29 27 27 27 27 28 29 27 30 29 28 28 28 30 29 28 28 28 28 28 27 27 27 26 25 25 26 29 30 30 30 32 33 34 34 34 34 36 39 41
43 41 39 38 36 34 33 33 32 31 31 31 32 32 31 29 29 31 32 33 32 29 32 30 30 30 30 29 28 27 27 28 28 29 29 31 32 32 33 35 36 37 37 38 40 43 45
48 45 43 41 39 37 36 35 35 35 35 35 35 34 33 33 32 32 33 32 31 32 32 31 30 27 26 26 27 27 27 27 27 27 28 29 32 33 35 36 38 38 40 42 44 47 49
47 45 42 42 43 40 41 43 40 38 39 38 38 37 35 34 33 33 33 34 34 34 34 30 29 27 25 25 27 28 29 30 30 30 30 32 32 33 34 36 38 40 42 44 47 49 53
50 47 42 39 43 44 40 41 43 44 44 43 43 41 39 36 35 36 35 36 36 34 35 34 32 29 26 25 27 28 29 29 29 30 31 32 33 34 36 38 40 44 45 48 52 54 58
51 50 46 43 43 43 44 43 42 40 41 42 42 39 37 35 37 37 37 37 37 36 35 36 32 31 30 28 30 30 31 32 33 34 34 36 36 37 39 40 41 44 46 50 54 54 56
52 52 49 45 45 47 46 48 46 41 39 40 39 38 38 37 36 38 37 37 38 38 38 36 33 32 30 31 31 30 31 32 33 34 35 36 37 39 40 42 43 44 45 47 54 56 59
58 55 49 48 49 50 50 48 47 41 39 40 40 40 41 38 38 39 37 39 40 40 39 36 35 32 30 30 31 30 29 30 31 33 36 39 39 38 37 38 40 42 43 45 48 52 57
63 60 48 43 44 45 45 45 44 42 41 43 41 40 41 41 41 40 39 41 40 39 37 35 33 32 30 30 29 29 30 33 35 36 35 37 39 38 38 39 40 42 45 46 48 54 57
52 50 51 45 43 43 45 47 47 46 45 45 46 46 44 45 43 41 39 38 36 35 34 32 32 31 31 32 32 32 32 33 33 35 36 38 39 41 42 43 44 46 48 50 54 56 59
54 55 47 51 45 44 43 43 44 46 47 48 47 46 44 42 40 39 37 34 33 31 32 32 32 32 31 31 29 30 31 33 34 36 36 38 42 42 42 43 44 47 49 53 56 58 61
50 51 55 50 44 45 43 45 42 40 43 46 48 43 43 39 36 31 30 30 29 28 31 32 32 31 30 31 33 32 33 35 35 36 37 38 41 42 44 45 48 50 52 55 56 57 58
47 45 50 51 49 45 47 49 45 44 42 34 41 48 41 33 28 30 32 27 27 28 29 29 29 30 31 33 35 36 34 33 33 35 37 40 41 42 45 48 51 54 58 60 60 61 54
50 46 50 49 51 51 53 54 54 52 52 51 46 40 37 30 25 26 27 27 30 32 30 30 31 33 33 32 32 32 33 35 36 36 38 42 42 41 43 46 48 52 56 58 61 60 62
47 54 53 54 51 50 60 58 59 59 53 44 41 30 21 22 27 28 29 28 31 33 32 29 31 31 30 31 33 34 34 35 36 37 40 40 41 41 44 45 49 53 56 55 58 60 64
41 48 42 46 53 53 53 52 48 39 31 24 20 23 27 26 26 29 29 30 29 31 30 29 30 30 30 32 32 34 35 37 38 39 40 41 43 46 46 48 50 51 52 55 56 57 58
36 40 36 29 30 30 29 24 21 21 24 26 25 27 26 26 29 30 29 31 32 30 28 29 30 31 31 33 35 36 37 38 39 41 42 45 46 49 50 51 52 53 53 52 53 55 59
20 18 21 21 19 20 19 20 23 18 20 24 26 28 28 27 28 27 30 30 28 27 29 31 32 34 35 36 37 38 38 40 42 44 47 48 49 53 55 54 54 52 53 53 55 55 57
30 22 21 23 21 22 19 20 23 23 23 24 26 26 26 28 28 29 29 28 28 30 31 31 34 36 36 37 39 41 43 45 48 49 50 51 54 57 58 60 60 56 58 60 62 61 63
35 28 26 28 32 26 26 23 23 23 24 25 25 27 27 27 27 28 28 29 30 32 33 35 37 39 40 41 43 46 47 51 53 54 56 57 59 60 61 65 62 62 64 66 66 68 66
36 32 34 30 23 26 25 23 22 24 24 24 26 26 26 26 27 29 31 32 33 34 36 38 41 42 43 46 49 50 53 55 56 58 61 61 63 64 65 67 68 65 68 70 71 72 73
35 31 33 27 26 28 26 25 24 25 25 25 25 26 27 28 29 31 32 33 34 37 39 41 44 46 49 50 51 53 56 59 60 61 62 64 65 67 68 68 69 69 72 74 74 76 76
Wind_Direction
254 256 259 262 263 263 266 272 277 286 298 303 308 317 325 329 334 332 329 332 341 343 338 331 319 319 309 305 306 299 291 280 276 269 265 264 267 264 265 260 256 253 251 248 244 245 246
255 256 259 261 264 268 272 275 278 281 288 289 299 310 318 321 325 328 328 328 326 330 337 332 324 314 307 297 295 293 292 287 276 273 272 271 270 268 265 263 264 264 262 260 257 255 255
258 258 257 260 262 265 273 278 278 283 293 295 297 303 310 315 318 319 323 326 327 325 320 323 325 312 306 298 295 287 285 283 282 279 273 270 272 273 270 268 268 266 265 262 260 260 257
255 259 259 257 259 263 268 270 275 280 288 295 296 298 305 312 313 316 319 320 321 322 320 316 312 311 308 299 290 284 281 276 275 274 275 276 276 275 273 271 269 266 264 265 264 261 260
256 257 258 259 258 258 262 266 266 274 284 285 292 293 298 303 308 313 316 319 315 316 314 312 308 306 302 301 297 291 282 277 274 271 273 274 276 276 276 274 275 272 268 266 266 266 265
252 256 257 258 259 259 261 262 265 268 273 279 280 286 292 299 303 306 308 310 313 313 310 306 303 300 298 294 294 295 293 279 272 270 270 270 273 276 275 276 275 274 274 271 268 263 264
251 253 257 258 258 260 261 265 263 265 270 279 284 281 282 290 294 298 299 300 307 311 311 303 298 294 292 289 289 289 290 284 274 269 270 272 271 270 273 275 277 275 271 271 270 270 267
249 251 254 258 257 259 261 264 266 266 270 274 279 281 285 282 285 291 293 295 297 301 307 305 300 292 290 289 285 286 286 284 280 275 270 271 272 272 271 271 272 274 273 273 271 271 270
247 250 252 253 256 258 261 264 266 267 269 272 275 278 280 286 285 286 291 296 296 299 308 304 302 296 292 287 284 282 282 282 280 279 275 271 271 272 271 271 271 272 272 273 274 273 272
246 249 250 254 255 257 260 262 265 268 269 271 272 276 277 280 284 288 292 295 295 299 304 307 304 299 294 287 283 283 282 280 278 278 278 276 275 273 274 275 275 274 276 275 274 273 273
247 242 248 253 256 259 262 261 262 267 269 269 270 272 275 279 282 287 289 292 298 302 302 309 308 303 295 287 286 284 282 280 280 279 278 277 277 277 278 278 278 279 278 277 277 277 277
244 246 247 249 251 259 266 266 265 264 266 268 270 272 273 277 280 284 285 289 293 297 294 300 301 296 288 285 284 285 285 283 281 279 279 278 279 279 279 279 279 279 279 279 278 278 278
242 247 248 252 253 259 263 266 266 263 264 265 267 270 271 275 279 281 283 287 289 291 295 296 296 289 284 280 281 282 281 280 280 280 279 279 281 281 282 283 282 282 284 284 283 283 283
237 246 251 251 254 259 260 265 266 261 263 265 266 267 269 274 275 277 280 282 285 289 291 292 288 285 282 283 281 280 278 279 280 281 283 284 286 286 287 288 288 288 287 288 289 290 288
245 245 257 253 254 258 260 260 261 259 257 261 264 265 270 268 271 275 276 281 284 286 287 284 283 279 280 279 281 281 280 280 281 283 287 291 291 292 293 292 291 289 289 289 287 286 286
254 257 250 248 250 254 252 250 252 256 256 261 263 263 262 262 265 271 275 278 280 283 283 280 277 278 279 281 281 282 284 284 284 286 289 291 292 293 293 293 291 290 290 289 287 286 286
245 238 244 245 242 241 239 238 245 247 253 258 262 262 259 260 262 267 273 274 275 276 276 274 277 281 282 282 284 285 286 287 288 291 291 292 292 296 297 298 298 296 294 291 289 289 290
235 238 245 233 234 233 234 230 235 239 244 252 256 258 253 255 258 265 268 269 271 273 276 277 281 283 283 283 285 285 287 288 291 292 295 297 296 300 300 302 301 299 297 295 292 292 291
232 229 232 232 228 230 231 232 234 238 241 244 247 247 250 251 255 256 259 268 275 278 276 278 280 281 282 283 285 286 292 295 298 299 302 302 304 306 306 306 306 306 304 300 299 298 298
219 228 223 226 229 222 223 224 227 232 232 239 243 246 249 244 247 253 260 265 271 273 273 275 276 278 279 281 284 289 294 296 298 302 304 305 308 308 308 306 306 307 305 304 302 302 302
215 214 208 211 213 218 221 223 227 230 234 229 245 250 245 243 253 258 261 262 269 275 274 278 279 281 284 286 287 293 296 299 302 306 306 304 305 308 308 307 309 310 305 303 302 303 298
222 214 215 216 214 219 217 221 226 229 229 227 235 246 247 248 256 260 263 266 269 271 273 279 281 283 286 290 294 297 297 300 303 301 302 304 306 305 309 307 307 313 309 306 304 302 299
224 220 216 219 217 216 220 227 230 232 239 240 249 257 253 252 258 261 265 268 271 274 280 283 283 285 290 292 296 297 299 300 299 301 301 303 302 301 308 305 308 313 307 307 306 305 302
196 198 199 193 196 199 200 209 227 233 236 234 237 246 253 260 259 261 264 269 272 276 281 282 282 286 288 290 293 294 295 296 296 297 299 300 299 298 300 299 303 304 304 303 302 303 301
219 210 203 205 205 218 213 216 222 235 243 244 246 251 254 257 259 264 264 267 271 276 276 280 283 285 287 289 288 288 291 290 291 292 294 298 297 298 297 295 296 297 300 302 301 305 307
233 224 218 213 216 211 216 225 230 236 242 247 248 250 252 256 261 263 267 271 274 275 278 281 282 284 286 287 288 289 287 287 289 291 294 296 298 298 297 298 299 300 301 300 302 305 306
238 226 220 211 216 209 220 226 234 239 244 244 246 250 255 258 259 265 270 273 276 277 279 281 283 285 286 287 287 287 288 290 290 290 295 296 298 298 300 300 301 304 302 303 304 305 306
230 226 218 229 211 221 225 229 236 240 242 246 248 252 255 257 262 266 269 271 273 277 280 282 283 287 286 287 288 292 290 291 289 291 294 296 297 298 299 302 304 303 301 302 303 305 305
223 221 227 228 215 221 226 232 236 238 242 247 250 254 258 260 265 266 267 272 277 279 281 283 285 287 288 290 291 290 291 291 293 293 294 297 297 297 298 299 300 300 300 301 302 302 303